[[{"header":{"parameterUnit":"m.s-1","parameterCategory":1,"la1":30.2991,"la2":30.254,"lo1":-89.0895,"lo2":-89.0444,"dy":0.0017,"dx":0.0017,"nx":28,"ny":28,"refTime":"2024-05-13T09:00:00:Z","depth":0,"parameterNumber":2,"parameterNumberName":"U-component_of_WINDS"},"data":[0,0,0,0,0,0,0,0,0,0,0,0,0,0,0,0,0,0,0,0,0,0,0,0,0,0,0,0,0,0,0,0,0,0,0,0,0,0,0,0,0,0,0,0,0,0,0,0,0,0,0,0,0,0,0,0,0,0,-2.421,-2.421,0,-2.4184,-2.4183,-2.4183,-2.414,-2.4139,-2.4138,-2.4137,-2.411,-2.411,-2.411,0,0,0,0,0,0,0,0,0,0,0,0,0,-2.4223,-2.4223,-2.421,-2.421,-2.4209,-2.4184,-2.4183,-2.4183,-2.414,-2.4139,-2.4138,-2.4137,-2.411,-2.411,-2.411,0,0,0,0,0,0,0,0,0,0,0,0,0,-2.4209,-2.4223,-2.421,-2.4185,-2.4182,-2.4184,-2.4183,-2.4183,-2.414,-2.4139,-2.4137,-2.4136,-2.411,-2.411,-2.411,-2.4135,0,0,-2.4111,-2.4111,0,0,0,0,0,0,0,0,-2.421,-2.4209,-2.4189,-2.4186,-2.4183,-2.4164,-2.4178,-2.4167,-2.414,-2.4156,-2.4137,-2.4136,-2.4129,-2.4127,-2.4125,-2.4134,-2.4132,-2.4111,-2.4111,-2.4111,-2.4111,0,0,0,0,0,0,0,-2.4211,-2.4209,-2.4199,-2.4188,-2.4185,-2.4175,-2.4171,-2.4176,-2.415,-2.4154,-2.4151,-2.4149,-2.4127,-2.4125,-2.4124,-2.4132,-2.4111,-2.4111,-2.4111,-2.4111,-2.4159,-2.416,0,0,0,0,0,0,-2.4216,-2.4211,-2.42,-2.4199,-2.4194,-2.4175,-2.4172,-2.4171,-2.4149,-2.4145,-2.415,-2.4147,-2.4126,-2.4124,-2.4123,-2.415,-2.4111,-2.4111,-2.4111,-2.4157,-2.4159,-2.416,0,0,0,0,0,0,-2.4216,-2.4215,-2.4201,-2.4204,-2.4201,-2.4176,-2.4176,-2.4171,-2.4169,-2.4146,-2.4141,-2.4152,-2.4125,-2.4123,-2.4132,-2.4148,-2.4111,-2.4111,-2.4156,-2.4158,-2.416,-2.4204,0,0,0,0,0,0,-2.4217,-2.4215,-2.4224,-2.4204,-2.4201,-2.4211,-2.4177,-2.4172,-2.4169,-2.4165,-2.4147,-2.4143,-2.4124,-2.4132,-2.4132,-2.4148,-2.4111,-2.4154,-2.4157,-2.4159,-2.4201,-2.4207,-2.4212,0,0,0,0,0,-2.4217,-2.4238,-2.4225,-2.4224,-2.4212,-2.4212,-2.421,-2.4188,-2.4171,-2.418,-2.4165,-2.4143,-2.4147,-2.4134,-2.4133,-2.4149,-2.4153,-2.4156,-2.4159,-2.4198,-2.4206,-2.4212,0,0,0,0,0,0,-2.4261,-2.4235,-2.422,-2.4235,-2.4226,-2.4205,-2.4215,-2.4196,-2.4192,-2.4188,-2.4161,-2.4157,-2.417,-2.416,-2.4146,-2.4171,-2.4147,-2.415,-2.4177,-2.4184,-2.4189,-2.4191,-2.4111,0,0,0,0,0,-2.4272,-2.4274,-2.4251,-2.4267,-2.4263,-2.424,-2.4239,-2.4223,-2.4212,-2.4208,-2.4194,-2.4184,-2.4183,-2.4183,-2.4181,-2.4199,-2.4195,-2.421,-2.4216,-2.4221,-2.4223,-2.4232,-2.4239,-2.417,-2.417,-2.417,0,0,-2.4295,-2.4281,-2.4284,-2.4275,-2.4266,-2.4269,-2.4237,-2.4241,-2.4243,-2.4209,-2.4216,-2.4206,-2.4193,-2.4207,-2.4213,-2.42,-2.4241,-2.4224,-2.4228,-2.4228,-2.4236,-2.4242,-2.4248,-2.4171,-2.4171,-2.4171,0,0,-2.4339,-2.4329,-2.434,-2.4332,-2.4319,-2.4304,-2.4306,-2.4288,-2.4279,-2.4287,-2.4261,-2.4263,-2.4262,-2.4254,-2.425,-2.4291,-2.4271,-2.4291,-2.4321,-2.433,-2.4335,-2.434,-2.4354,-2.436,-2.4294,-2.4294,-2.4294,0,-2.4369,-2.4373,-2.4349,-2.4355,-2.4351,-2.432,-2.4332,-2.4325,-2.4312,-2.431,-2.4296,-2.4294,-2.4284,-2.4295,-2.4305,-2.4303,-2.4305,-2.4293,-2.4336,-2.4341,-2.4345,-2.4358,-2.4364,-2.4297,-2.4296,-2.4296,-2.4296,0,-2.4411,-2.4413,-2.4424,-2.4412,-2.441,-2.4419,-2.4396,-2.4397,-2.4381,-2.4367,-2.4375,-2.4362,-2.4356,-2.4358,-2.4342,-2.4367,-2.4359,-2.4341,-2.4316,-2.4354,-2.4366,-2.4371,-2.43,-2.4299,-2.4298,-2.4298,0,0,-2.448,-2.4455,-2.446,-2.4454,-2.4437,-2.4439,-2.4446,-2.4441,-2.4442,-2.4434,-2.4439,-2.4439,-2.4422,-2.4418,-2.4401,-2.4409,-2.4442,-2.439,-2.4389,-2.44,-2.4469,-2.4482,-2.4488,-2.443,-2.443,-2.4431,-2.447,0,-2.452,-2.4531,-2.451,-2.4526,-2.4528,-2.4499,-2.4506,-2.4496,-2.4484,-2.4484,-2.447,-2.447,-2.4448,-2.4445,-2.4452,-2.4437,-2.4456,-2.4434,-2.4434,-2.4434,-2.4437,-2.4495,-2.4509,-2.4546,-2.4474,-2.4475,-2.4476,0,-2.4568,-2.4562,-2.4579,-2.4561,-2.4561,-2.4568,-2.4561,-2.4561,-2.455,-2.454,-2.4536,-2.4516,-2.4522,-2.4498,-2.4506,-2.4492,-2.4491,-2.4483,-2.4484,-2.4483,-2.4457,-2.4494,-2.4557,-2.4562,-2.4483,-2.4482,-2.4482,0,-2.4616,-2.4613,-2.4622,-2.4618,-2.4599,-2.4603,-2.4595,-2.4583,-2.4581,-2.4575,-2.4574,-2.4569,-2.4566,-2.4563,-2.4543,-2.4527,-2.4553,-2.4527,-2.4545,-2.4545,-2.4551,-2.4551,-2.4613,-2.4551,-2.4551,-2.4551,-2.4551,0,-2.4663,-2.4674,-2.4644,-2.465,-2.4661,-2.4637,-2.4649,-2.4638,-2.4628,-2.463,-2.4606,-2.4609,-2.4582,-2.4583,-2.4567,-2.4575,-2.4575,-2.4567,-2.4562,-2.4569,-2.457,-2.4567,-2.4564,-2.4552,-2.4552,-2.4552,-2.4552,0,-2.4718,-2.4699,-2.4707,-2.4688,-2.4683,-2.4693,-2.4676,-2.468,-2.4666,-2.467,-2.467,-2.4648,-2.4647,-2.4627,-2.4622,-2.4611,-2.4626,-2.4617,-2.463,-2.4627,-2.4645,-2.4644,-2.4708,-2.4715,-2.4649,-2.465,-2.465,0,-2.4749,-2.4757,-2.4738,-2.4738,-2.4732,-2.4732,-2.473,-2.4707,-2.4706,-2.4694,-2.47,-2.4697,-2.4694,-2.4694,-2.4677,-2.4673,-2.4664,-2.4687,-2.4663,-2.4669,-2.4664,-2.4663,-2.4664,-2.4692,-2.4692,-2.4693,-2.4694,0,-2.4805,-2.4795,-2.4793,-2.4788,-2.4786,-2.4781,-2.4774,-2.4776,-2.475,-2.475,-2.4749,-2.4747,-2.4742,-2.4739,-2.4732,-2.4724,-2.4704,-2.4701,-2.4705,-2.4711,-2.4718,-2.4714,-2.4643,-2.47,-2.4699,-2.4699,-2.4698,-2.4698,-2.4849,-2.4854,-2.4842,-2.4841,-2.4833,-2.4828,-2.4831,-2.4817,-2.4816,-2.481,-2.4796,-2.4798,-2.4786,-2.4775,-2.4768,-2.4769,-2.4757,-2.4763,-2.4764,-2.4765,-2.4769,-2.4719,-2.4767,-2.4767,-2.4767,-2.4767,-2.4767,0,-2.4903,-2.4894,-2.4893,-2.4884,-2.4883,-2.4866,-2.4857,-2.4858,-2.4859,-2.485,-2.4847,-2.4846,-2.4844,-2.4827,-2.4823,-2.4826,-2.4817,-2.4826,-2.4825,-2.4823,-2.478,-2.4777,-2.4833,-2.4833,-2.4833,-2.4833,-2.4833,-2.4833,-2.4931,-2.494,-2.4929,-2.4933,-2.4924,-2.4925,-2.4921,-2.4916,-2.4909,-2.4908,-2.4906,-2.4896,-2.4884,-2.4878,-2.4875,-2.487,-2.487,-2.4881,-2.4874,-2.4833,-2.4826,-2.482,-2.4817,-2.4881,-2.4882,-2.4917,-2.4917,-2.4918]},{"header":{"parameterUnit":"m.s-1","parameterCategory":1,"la1":30.2991,"la2":30.254,"lo1":-89.0895,"lo2":-89.0444,"dy":0.0017,"dx":0.0017,"nx":28,"ny":28,"refTime":"2024-05-13T09:00:00:Z","depth":0,"parameterNumber":3,"parameterNumberName":"V-component_of_WINDS"},"data":[0,0,0,0,0,0,0,0,0,0,0,0,0,0,0,0,0,0,0,0,0,0,0,0,0,0,0,0,0,0,0,0,0,0,0,0,0,0,0,0,0,0,0,0,0,0,0,0,0,0,0,0,0,0,0,0,0,0,4.264,4.2642,0,4.2846,4.2848,4.2851,4.2853,4.285,4.2848,4.2845,4.3057,4.3065,4.3073,0,0,0,0,0,0,0,0,0,0,0,0,0,4.225,4.2257,4.264,4.2642,4.2645,4.2846,4.2848,4.2851,4.2853,4.285,4.2847,4.2844,4.3055,4.3064,4.3074,0,0,0,0,0,0,0,0,0,0,0,0,0,4.2434,4.2259,4.2639,4.267,4.2675,4.2845,4.2848,4.2852,4.2854,4.285,4.2846,4.2842,4.3052,4.3063,4.3075,4.3229,0,0,4.3112,4.3118,0,0,0,0,0,0,0,0,4.2423,4.2448,4.2663,4.2668,4.2674,4.282,4.2789,4.2978,4.2855,4.2786,4.2845,4.2841,4.2982,4.2999,4.3047,4.3239,4.3248,4.3114,4.3121,4.3126,4.313,0,0,0,0,0,0,0,4.2411,4.2439,4.2721,4.2666,4.2673,4.2674,4.2696,4.2825,4.2903,4.2792,4.2792,4.2817,4.2984,4.3035,4.3052,4.3251,4.3113,4.3124,4.3131,4.3136,4.3582,4.3587,0,0,0,0,0,0,4.2392,4.2429,4.2715,4.2727,4.2536,4.2684,4.2709,4.2777,4.2902,4.2917,4.282,4.2816,4.3016,4.3037,4.3059,4.3249,4.3126,4.3137,4.3144,4.3578,4.3583,4.3588,0,0,0,0,0,0,4.2383,4.2417,4.2706,4.2579,4.2615,4.2695,4.2772,4.2783,4.2834,4.2923,4.2937,4.2857,4.3014,4.3042,4.3187,4.3256,4.3143,4.3154,4.3573,4.358,4.3586,4.3628,0,0,0,0,0,0,4.2372,4.2414,4.2472,4.258,4.2622,4.283,4.2776,4.279,4.2855,4.2852,4.2962,4.2977,4.3013,4.3169,4.3199,4.3271,4.3163,4.3567,4.3576,4.3584,4.3621,4.3636,4.3648,0,0,0,0,0,4.2358,4.2476,4.2475,4.251,4.2697,4.2834,4.2859,4.2898,4.286,4.292,4.2978,4.2973,4.3243,4.3184,4.3218,4.3294,4.3563,4.3573,4.3583,4.3615,4.3633,4.3648,0,0,0,0,0,0,4.2374,4.249,4.2491,4.2647,4.2731,4.2834,4.2911,4.2915,4.3011,4.3004,4.3049,4.3074,4.3219,4.3271,4.3202,4.3451,4.3399,4.3416,4.3411,4.3429,4.3442,4.3427,4.3173,0,0,0,0,0,4.2396,4.2498,4.2594,4.2722,4.2764,4.283,4.2892,4.2915,4.3003,4.3039,4.3107,4.3194,4.3299,4.3366,4.3467,4.3628,4.3654,4.3698,4.3711,4.3722,4.3737,4.3828,4.385,4.3622,4.3622,4.3622,0,0,4.2442,4.2518,4.2579,4.2727,4.2795,4.29,4.286,4.2972,4.3051,4.3056,4.3198,4.3251,4.3351,4.3505,4.3576,4.3553,4.3805,4.3735,4.3743,4.3752,4.3841,4.3862,4.3881,4.3629,4.3628,4.3627,0,0,4.258,4.2647,4.2762,4.2831,4.2934,4.2978,4.3005,4.3109,4.3145,4.3288,4.3294,4.3389,4.3567,4.3639,4.3699,4.3866,4.3866,4.3898,4.3969,4.4057,4.4075,4.4091,4.4153,4.4174,4.3912,4.3912,4.3912,0,4.2624,4.2782,4.2821,4.2934,4.3,4.3009,4.3127,4.3192,4.3323,4.3369,4.334,4.3567,4.3634,4.3806,4.3847,4.3895,4.3929,4.3885,4.4069,4.4086,4.4102,4.4161,4.4183,4.3916,4.3915,4.3915,4.3915,0,4.2832,4.2942,4.3023,4.3149,4.3224,4.3339,4.3396,4.3467,4.3484,4.3531,4.3678,4.376,4.3878,4.3921,4.3938,4.4097,4.4079,4.406,4.4009,4.4126,4.4182,4.4205,4.392,4.3919,4.3918,4.3917,0,0,4.2986,4.3133,4.3162,4.3221,4.3336,4.3422,4.3538,4.3654,4.3715,4.3805,4.3905,4.4057,4.4041,4.4108,4.4134,4.4212,4.4341,4.4183,4.4186,4.4211,4.4523,4.4538,4.4563,4.4342,4.4346,4.435,4.4515,0,4.3137,4.3343,4.3382,4.3562,4.3665,4.3676,4.3777,4.386,4.3907,4.4002,4.4054,4.4162,4.4131,4.4173,4.425,4.4309,4.4405,4.4297,4.4436,4.4441,4.4412,4.4592,4.4608,4.476,4.4537,4.4541,4.4544,0,4.3341,4.3437,4.3627,4.373,4.3774,4.3865,4.3976,4.4065,4.416,4.4189,4.4266,4.4283,4.4406,4.4349,4.452,4.4446,4.4505,4.4543,4.455,4.4565,4.45,4.4614,4.481,4.4833,4.4578,4.4576,4.4573,0,4.3435,4.3612,4.3749,4.3799,4.3922,4.3985,4.404,4.413,4.4198,4.4295,4.434,4.445,4.4511,4.4596,4.4644,4.4598,4.4812,4.4758,4.4841,4.484,4.4886,4.4883,4.5096,4.4922,4.4922,4.4922,4.4921,0,4.3601,4.3717,4.3794,4.3878,4.4009,4.4054,4.4183,4.4236,4.4317,4.4413,4.4429,4.4519,4.4576,4.4674,4.4712,4.4849,4.4876,4.4904,4.4913,4.4904,4.49,4.4944,4.4935,4.4928,4.4926,4.4925,4.4924,0,4.3729,4.3785,4.3935,4.404,4.4069,4.4161,4.4252,4.4335,4.4382,4.4504,4.4535,4.4611,4.4728,4.4783,4.4928,4.4954,4.511,4.5111,4.5078,4.5082,4.5162,4.5155,4.5412,4.5448,4.5249,4.5251,4.5252,0,4.3832,4.3922,4.4036,4.4102,4.4158,4.4263,4.4332,4.438,4.4452,4.4567,4.4637,4.4755,4.4852,4.5039,4.5107,4.5219,4.5224,4.5306,4.5241,4.5229,4.5227,4.5222,4.5232,4.5318,4.532,4.5322,4.5323,0,4.4008,4.4032,4.4131,4.4242,4.4324,4.4413,4.4501,4.4554,4.4616,4.4696,4.4816,4.4891,4.504,4.5157,4.5274,4.5331,4.5339,4.5343,4.5369,4.536,4.5338,4.5353,4.5112,4.5337,4.5336,4.5335,4.5334,4.5333,4.4128,4.421,4.4303,4.4414,4.4485,4.4567,4.4651,4.4709,4.481,4.4935,4.4957,4.5085,4.5179,4.5336,4.5398,4.55,4.5481,4.5517,4.5527,4.5536,4.5541,4.5321,4.5521,4.5521,4.552,4.552,4.552,0,4.4308,4.4369,4.447,4.4592,4.468,4.4679,4.4776,4.485,4.4962,4.5049,4.5144,4.5283,4.5397,4.5475,4.5592,4.5659,4.5665,4.5688,4.5684,4.5698,4.555,4.5517,4.5681,4.5681,4.5681,4.5681,4.5681,4.5681,4.4411,4.4549,4.4584,4.4757,4.4818,4.4943,4.4999,4.5076,4.5145,4.5299,4.5395,4.5444,4.5529,4.5651,4.5757,4.5777,4.582,4.5844,4.5864,4.5725,4.5708,4.5692,4.5661,4.5852,4.5853,4.6003,4.6005,4.6006]}]]